TimePDT,TemperatureF,Dew PointF,Humidity,Sea Level PressureIn,VisibilityMPH,Wind Direction,Wind SpeedMPH,Gust SpeedMPH,PrecipitationIn,Events,Conditions,WindDirDegrees,DateUTC
12:54 AM,57.0,46.0,67,30.12,10.0,Calm,Calm,-,N/A,,Clear,0,2012-10-27 07:54:00
1:54 AM,55.9,46.0,69,30.10,10.0,East,3.5,-,N/A,,Clear,80,2012-10-27 08:54:00
2:54 AM,54.0,46.0,75,30.10,10.0,East,3.5,-,N/A,,Clear,80,2012-10-27 09:54:00
3:54 AM,54.0,46.9,77,30.09,10.0,ENE,3.5,-,N/A,,Clear,70,2012-10-27 10:54:00
4:54 AM,53.1,46.9,80,30.09,10.0,Calm,Calm,-,N/A,,Clear,0,2012-10-27 11:54:00
5:54 AM,54.0,46.9,77,30.09,10.0,ENE,3.5,-,N/A,,Clear,70,2012-10-27 12:54:00
6:54 AM,54.0,48.0,80,30.09,10.0,Calm,Calm,-,N/A,,Clear,0,2012-10-27 13:54:00
7:54 AM,54.0,48.0,80,30.10,10.0,ENE,4.6,-,N/A,,Clear,70,2012-10-27 14:54:00
8:54 AM,59.0,50.0,72,30.10,10.0,Calm,Calm,-,N/A,,Clear,0,2012-10-27 15:54:00
9:54 AM,63.0,53.1,70,30.10,10.0,Calm,Calm,-,N/A,,Clear,0,2012-10-27 16:54:00
10:54 AM,66.0,55.0,68,30.10,10.0,WNW,5.8,-,N/A,,Clear,300,2012-10-27 17:54:00
11:54 AM,69.1,55.0,61,30.09,10.0,WNW,3.5,-,N/A,,Clear,290,2012-10-27 18:54:00
12:54 PM,73.0,52.0,48,30.06,10.0,West,8.1,-,N/A,,Clear,270,2012-10-27 19:54:00
1:54 PM,73.0,50.0,44,30.03,10.0,WNW,9.2,-,N/A,,Clear,300,2012-10-27 20:54:00
2:54 PM,75.0,53.1,46,30.00,10.0,West,5.8,-,N/A,,Clear,260,2012-10-27 21:54:00
3:54 PM,75.0,53.1,46,29.99,10.0,West,8.1,-,N/A,,Clear,270,2012-10-27 22:54:00
4:54 PM,72.0,57.0,59,29.99,10.0,WNW,8.1,-,N/A,,Clear,290,2012-10-27 23:54:00
5:54 PM,69.1,57.0,65,29.98,10.0,West,3.5,-,N/A,,Clear,280,2012-10-28 00:54:00
6:54 PM,66.9,57.0,70,29.99,10.0,Calm,Calm,-,N/A,,Clear,0,2012-10-28 01:54:00
7:54 PM,64.0,57.0,78,30.00,10.0,Calm,Calm,-,N/A,,Clear,0,2012-10-28 02:54:00
8:54 PM,63.0,57.0,81,30.00,10.0,NW,3.5,-,N/A,,Clear,320,2012-10-28 03:54:00
9:54 PM,63.0,57.0,81,30.01,10.0,Calm,Calm,-,N/A,,Clear,0,2012-10-28 04:54:00
10:54 PM,62.1,55.9,80,30.01,10.0,Calm,Calm,-,N/A,,Clear,0,2012-10-28 05:54:00
11:54 PM,61.0,55.9,83,30.01,10.0,Calm,Calm,-,N/A,,Clear,0,2012-10-28 06:54:00